Location: Boquerón
(10.0687°N, 67.9212°W)
Time: 11:01:55
(UTC+00:00)

Helios 1B rocket - Pass Details

Date: 29 May 2024
Orbit: 533 x 545 km, 98.2° (Epoch: 16 June)

Event Time Altitude Azimuth Distance (km) Brightness Sun altitude
Rises 23:21:31 0° 187° (S) 2,703 5.7 -8.1°
Reaches altitude 10° 23:23:50 10° 199° (SSW) 1,809 4.9 -8.7°
Maximum altitude 23:27:14 28° 259° (W) 1,025 4.4 -9.4°
Drops below altitude 10° 23:30:37 10° 320° (NW) 1,803 6.1 -10.2°
Sets 23:32:57 0° 331° (NNW) 2,693 6.8 -10.7°
